• Join FlightAware (Why Join?)
  • Login
  • US Flag 
02:34PM EST


 

Airport Tracker/Info


-or-


 

Live Flight TrackerFlight Track Log ✈ GLA73V ✈ 04-May-2013 ✈ KVEL - KDEN

Flight Track Log - Related Links

Times and Time Zones

All times are in EDT time to prevent confusion due to time zone crossing. See the GLA73V flight status page for this flight to view local times or setup timezone preferences in your user account.

Time Position Orientation Groundspeed Altitude Reporting Facility
EDT Latitude Longitude Course Direction KTS MPH feet Rate Location/Type
08:24AM 40.4031 -109.4106 93° East 167 192 8,900  Level Salt Lake Center
08:25AM 40.4000 -109.3414 93° East 183 211 10,600 1,664 Climbing Salt Lake Center
08:26AM 40.4067 -109.2672 83° East 200 230 12,200 1,550 Climbing Denver Center
08:27AM 40.4158 -109.1908 81° East 213 245 13,700 1,574 Climbing Denver Center
08:28AM 40.4231 -109.0969 84° East 223 257 15,400 1,574 Climbing Salt Lake Center
08:29AM 40.4328 -109.0144 81° East 234 269 16,900 1,438 Climbing Salt Lake Center
08:30AM 40.4417 -108.9311 82° East 239 275 18,300 1,350 Climbing Salt Lake Center
08:31AM 40.4481 -108.8336 85° East 243 280 19,600 1,240 Climbing Salt Lake Center
08:32AM 40.4558 -108.7456 83° East 251 289 20,800 1,091 Climbing Salt Lake Center
08:33AM 40.4625 -108.6575 84° East 253 291 21,800 1,050 Climbing Salt Lake Center
08:34AM 40.4708 -108.5514 84° East 259 298 22,900 595 Climbing Salt Lake Center
08:35AM 40.4744 -108.4567 87° East 267 307 23,000 99 Climbing Salt Lake Center
08:36AM 40.4750 -108.3525 90° East 289 333 23,100  Climbing Salt Lake Center
08:37AM 40.4778 -108.2325 88° East 296 341 23,000 -50 Descending Salt Lake Center
08:38AM 40.4831 -108.1272 86° East 301 346 23,000  Level Salt Lake Center
08:39AM 40.4903 -108.0247 85° East 298 343 23,000  Level Salt Lake Center
08:40AM 40.4992 -107.9047 84° East 296 341 23,000 80 Level Salt Lake Center
08:40AM 40.5008 -107.8808 85° East 296 341 23,100  Climbing Denver Center
08:41AM 40.5064 -107.7767 86° East 298 343 23,000 -50 Descending Denver Center
08:42AM 40.5108 -107.6725 87° East 298 343 23,000 50 Level Denver Center
08:43AM 40.5147 -107.5511 88° East 297 342 23,100  Climbing Denver Center
08:44AM 40.5181 -107.4481 88° East 295 339 23,000 -49 Descending Denver Center
08:45AM 40.5203 -107.3406 88° East 305 351 23,000  Level Denver Center
08:46AM 40.5228 -107.2194 88° East 300 345 23,000 50 Level Denver Center
08:47AM 40.5253 -107.1117 88° East 303 349 23,100  Climbing Denver Center
08:48AM 40.5258 -107.0006 90° East 302 348 23,000 -50 Descending Denver Center
08:49AM 40.5269 -106.8931 89° East 297 342 23,000 50 Level Denver Center
08:50AM 40.5269 -106.7844 90° East 296 341 23,100  Climbing Denver Center
08:51AM 40.5278 -106.6753 89° East 297 342 23,000  Descending Denver Center
08:52AM 40.5231 -106.5661 93° East 299 344 23,100 50 Climbing Denver Center
08:54AM 40.5169 -106.4547 94° East 299 344 23,100  Level Denver Center
08:55AM 40.5094 -106.3506 95° East 299 344 23,100  Level Denver Center
08:56AM 40.5069 -106.2472 92° East 295 339 23,100  Level Denver Center
08:57AM 40.5042 -106.1322 92° East 295 339 23,100 -590 Level Denver Center
08:58AM 40.5078 -106.0244 87° East 293 337 21,900 -1,475 Descending Denver Center
08:59AM 40.5089 -105.9181 89° East 289 333 20,100 -1,934 Descending Denver Center
09:00AM 40.5117 -105.8111 88° East 289 333 18,000 -1,488 Descending Denver Center
09:01AM 40.5111 -105.7036 90° East 294 338 17,100 -443 Descending Denver Center
09:02AM 40.4900 -105.6053 106° East 297 342 17,100  Level Denver Center
09:03AM 40.4328 -105.5314 135° Southeast 288 331 17,100 -496 Level Denver Center
09:04AM 40.3911 -105.4108 114° Southeast 305 351 16,000 -1,289 Descending Denver Center
09:05AM 40.3644 -105.2994 107° East 298 343 14,500 -1,328 Descending Denver Center
09:06AM 40.3436 -105.2000 105° East 285 328 13,300 -694 Descending Denver Center
09:07AM 40.3233 -105.1044 106° East 274 315 13,100 -298 Descending Denver Center
09:08AM 40.2964 -105.0147 111° Southeast 271 312 12,700 -639 Descending Denver Center
09:09AM 40.2567 -104.9303 122° Southeast 275 316 11,800 -1,041 Descending Denver Center
09:10AM 40.2139 -104.8467 124° Southeast 278 320 10,600 -1,140 Descending Denver Center
09:11AM 40.1519 -104.7881 144° Southeast 271 312 9,500 -1,230 Descending Denver Center
09:12AM 40.0800 -104.7361 151° Southeast 274 315 8,100 -1,091 Descending Denver Center
09:13AM 40.0106 -104.7008 159° South 267 307 7,300 -893 Descending Denver Center
09:14AM 39.9447 -104.6956 176° South 236 272 6,300 -885 Descending Denver Center
09:15AM 39.8964 -104.6956 180° South 178 205 5,500 -787 Descending Denver Center
09:17AM 39.8617 -104.6732 134° Southeast  Level Estimated
09:24AM 39.8617 -104.6732 346° North  Level Estimated
09:25AM 39.8617 -104.6732 346° North  Level Estimated
09:26AM 39.8617 -104.6732 346° North  Level Estimated